Beatrice, NE

7:56 PM CDT on March 28, 2017 (GMT -0500)
Beatrice Municipal

Weather History for KBIE - January, 2002

Change the Weather History Date:

Wednesday, January 16, 2002

  Actual Average Record
Temperature  
Mean Temperature 25 °F -  
Max Temperature 35 °F 35 °F 62 °F (2015)
Min Temperature 15 °F 12 °F -13 °F (1977)
Degree Days  
Heating Degree Days 40    
Moisture  
Dew Point 14 °F    
Average Humidity 61    
Maximum Humidity 80    
Minimum Humidity 35    
Precipitation  
Precipitation 0.00 in - - ()
Sea Level Pressure  
Sea Level Pressure 30.09 in    
Wind  
Wind Speed 12 mph (NNW)    
Max Wind Speed 20 mph    
Max Gust Speed 25 mph    
Visibility 10 miles    
Events      
Averages and records for this station are not official NWS values.
T = Trace of Precipitation, MM = Missing Value Source: NWS Daily Summary

Daily Weather History Graph

Daily Weather History Graph

Search for Another Location

Airport or City:

Trip Planner

Search our weather history database for the weather conditions in past years. The results will help you decide how hot, cold, wet, or windy it might be!

Date:

Astronomy

Jan. 16, 2002 Rise Set
Actual Time 7:47 AM CST 5:26 PM CST
Civil Twilight 7:17 AM CST 5:56 PM CST
Nautical Twilight 6:44 AM CST 6:29 PM CST
Astronomical Twilight 6:11 AM CST 7:02 PM CST
Moon 9:57 AM CST (1/16) 8:32 PM CST (1/16)
Length of Visible Light 10h 38m
Length of Day
9h 39m
Waxing Crescent, 9% of the Moon is Illuminated
Jan 16
Waxing Crescent
Jan 21
First Quarter
Jan 28
Full
Feb 4
Last Quarter
Feb 12
New

Hourly Weather History & Observations

Time (CST) Temp. Windchill Dew Point Humidity Pressure Visibility Wind Dir Wind Speed Gust Speed Precip Events Conditions
12:13 AM 26.6 °F 17.5 °F 17.6 °F 69% 30.03 in 10.0 mi NE 9.2 mph - N/A   Clear
12:34 AM 26.6 °F 16.8 °F 15.8 °F 64% 30.02 in 10.0 mi NNE 10.4 mph - N/A   Clear
12:50 AM 26.6 °F 16.8 °F 15.8 °F 64% 30.02 in 10.0 mi NNE 10.4 mph - N/A   Clear
1:12 AM 26.6 °F 15.7 °F 17.6 °F 69% 30.02 in 10.0 mi NNE 12.7 mph - N/A   Clear
1:33 AM 26.6 °F 15.7 °F 17.6 °F 69% 30.02 in 10.0 mi North 12.7 mph - N/A   Clear
1:50 AM 26.6 °F 16.2 °F 17.6 °F 69% 30.02 in 10.0 mi North 11.5 mph 17.3 mph N/A   Clear
2:52 AM 26.6 °F 14.7 °F 17.6 °F 69% 30.01 in 10.0 mi North 15.0 mph 18.4 mph N/A   Clear
3:11 AM 26.6 °F 16.2 °F 17.6 °F 69% 30.01 in 10.0 mi North 11.5 mph - N/A   Clear
3:30 AM 26.6 °F 15.7 °F 17.6 °F 69% 30.01 in 10.0 mi North 12.7 mph - N/A   Clear
4:11 AM 26.6 °F 15.2 °F 17.6 °F 69% 30.00 in 10.0 mi North 13.8 mph - N/A   Clear
4:31 AM 24.8 °F 13.4 °F 17.6 °F 74% 30.00 in 10.0 mi North 12.7 mph - N/A   Clear
4:51 AM 24.8 °F 13.4 °F 17.6 °F 74% 30.01 in 10.0 mi North 12.7 mph 18.4 mph N/A   Clear
5:10 AM 24.8 °F 15.3 °F 17.6 °F 74% 30.01 in 10.0 mi North 9.2 mph - N/A   Clear
5:31 AM 24.8 °F 12.9 °F 17.6 °F 74% 30.00 in 10.0 mi North 13.8 mph 19.6 mph N/A   Clear
6:31 AM 24.8 °F 12.9 °F 17.6 °F 74% 30.02 in 10.0 mi North 13.8 mph - N/A   Clear
6:50 AM 24.8 °F 14.0 °F 17.6 °F 74% 30.02 in 10.0 mi North 11.5 mph - N/A   Clear
7:13 AM - - - N/A% 30.04 in - North 10.4 mph - N/A   Unknown
7:32 AM 23.0 °F 13.1 °F 17.6 °F 80% 30.05 in 10.0 mi North 9.2 mph - N/A   Clear
7:50 AM 23.0 °F 11.7 °F 17.6 °F 80% 30.06 in 10.0 mi NNW 11.5 mph - N/A   Clear
8:10 AM 23.0 °F 11.7 °F 15.8 °F 74% 30.06 in 10.0 mi NW 11.5 mph - N/A   Clear
8:30 AM 23.0 °F 11.1 °F 17.6 °F 80% 30.08 in 10.0 mi NNW 12.7 mph - N/A   Clear
8:52 AM 24.8 °F 12.4 °F 17.6 °F 74% 30.08 in 10.0 mi NW 15.0 mph - N/A   Clear
9:51 AM 24.8 °F 12.9 °F 17.6 °F 74% 30.10 in 10.0 mi NW 13.8 mph - N/A   Clear
10:30 AM 26.6 °F 14.7 °F 17.6 °F 69% 30.12 in 10.0 mi NNW 15.0 mph - N/A   Clear
10:51 AM 26.6 °F 13.4 °F 15.8 °F 64% 30.13 in 10.0 mi NNW 18.4 mph 23.0 mph N/A   Clear
11:12 AM 28.4 °F 16.2 °F 17.6 °F 64% 30.13 in 10.0 mi NW 17.3 mph 21.9 mph N/A   Clear
11:30 AM 30.2 °F 18.5 °F 15.8 °F 55% 30.13 in 10.0 mi NNW 17.3 mph 25.3 mph N/A   Clear
11:50 AM 30.2 °F 17.8 °F 15.8 °F 55% 30.13 in 10.0 mi NW 19.6 mph 25.3 mph N/A   Scattered Clouds
12:11 PM 30.2 °F 17.8 °F 17.6 °F 60% 30.12 in 10.0 mi NW 19.6 mph 25.3 mph N/A   Scattered Clouds
12:30 PM 30.2 °F 18.1 °F 15.8 °F 55% 30.12 in 10.0 mi NW 18.4 mph 25.3 mph N/A   Scattered Clouds
12:51 PM 30.2 °F 18.9 °F 14.0 °F 51% 30.11 in 10.0 mi NW 16.1 mph - N/A   Scattered Clouds
1:10 PM 32.0 °F 20.5 °F 15.8 °F 51% 30.11 in 10.0 mi NW 18.4 mph 25.3 mph N/A   Scattered Clouds
1:31 PM 32.0 °F 20.5 °F 15.8 °F 51% 30.10 in 10.0 mi NW 18.4 mph - N/A   Scattered Clouds
1:50 PM 32.0 °F 20.1 °F 14.0 °F 48% 30.10 in 10.0 mi NW 19.6 mph 24.2 mph N/A   Clear
2:12 PM 33.8 °F 23.5 °F 15.8 °F 48% 30.10 in 10.0 mi NW 16.1 mph 23.0 mph N/A   Scattered Clouds
2:30 PM 33.8 °F 23.2 °F 12.2 °F 41% 30.10 in 10.0 mi NW 17.3 mph - N/A   Scattered Clouds
2:52 PM 35.6 °F 25.5 °F 10.4 °F 35% 30.11 in 10.0 mi NW 17.3 mph 24.2 mph N/A   Clear
3:12 PM 33.8 °F 23.2 °F 10.4 °F 38% 30.12 in 10.0 mi NW 17.3 mph - N/A   Clear
4:10 PM 33.8 °F 22.8 °F 10.4 °F 38% 30.12 in 10.0 mi NW 18.4 mph 21.9 mph N/A   Clear
4:30 PM 33.8 °F 24.8 °F 10.4 °F 38% 30.12 in 10.0 mi NNW 12.7 mph - N/A   Clear
4:50 PM 33.8 °F 25.8 °F 8.6 °F 35% 30.12 in 10.0 mi NNW 10.4 mph - N/A   Clear
5:30 PM 28.4 °F 21.2 °F 8.6 °F 43% 30.13 in 10.0 mi WNW 6.9 mph - N/A   Clear
5:50 PM 26.6 °F 21.2 °F 6.8 °F 43% 30.13 in 10.0 mi WNW 4.6 mph - N/A   Clear
6:12 PM 24.8 °F 20.5 °F 6.8 °F 46% 30.13 in 10.0 mi WSW 3.5 mph - N/A   Clear
6:30 PM 21.2 °F 16.4 °F 6.8 °F 54% 30.14 in 10.0 mi SW 3.5 mph - N/A   Clear
6:52 PM 19.4 °F 9.5 °F 6.8 °F 58% 30.14 in 10.0 mi SW 8.1 mph - N/A   Clear
7:10 PM 23.0 °F 15.8 °F 8.6 °F 54% 30.15 in 10.0 mi SW 5.8 mph - N/A   Clear
8:11 PM 21.2 °F 13.6 °F 6.8 °F 54% 30.15 in 10.0 mi SW 5.8 mph - N/A   Clear
8:30 PM 19.4 °F 11.5 °F 8.6 °F 63% 30.14 in 10.0 mi WSW 5.8 mph - N/A   Clear
9:11 PM 19.4 °F 11.5 °F 6.8 °F 58% 30.14 in 10.0 mi West 5.8 mph - N/A   Clear
9:33 PM 19.4 °F 12.8 °F 8.6 °F 63% 30.14 in 10.0 mi WSW 4.6 mph - N/A   Clear
9:50 PM 19.4 °F - 6.8 °F 58% 30.14 in 10.0 mi Calm Calm - N/A   Clear
10:31 PM 15.8 °F - 6.8 °F 68% 30.14 in 10.0 mi Calm Calm - N/A   Clear
10:50 PM 17.6 °F - 8.6 °F 68% 30.15 in 10.0 mi Calm Calm - N/A   Clear
11:31 PM 19.4 °F - 8.6 °F 63% 30.16 in 10.0 mi Calm Calm - N/A   Clear
11:53 PM 19.4 °F - 10.4 °F 68% 30.17 in 10.0 mi Calm Calm - N/A   Clear